Location: K�ln
(50.9455°N, 6.9544°E)
Time: 06:18:30
(UTC+01:00)

ISS - Pass Details

Date: 09 January 2018
Orbit: 402 x 407 km, 51.6° (Epoch: 19 January)

Event Time Altitude Azimuth Distance (km) Brightness Sun altitude
Exits shadow 05:48:49 33° 88° (E) 712 -2.1 -24.8°
Drops below altitude 10° 05:50:46 10° 93° (E) 1,469 0.1 -24.5°
Sets 05:52:52 0° 94° (E) 2,330 1.5 -24.2°
